Terminal Aerodrome Forecast
Issued by NWS North Platte, NE

Home | Current Version | Previous Version | Graphics & Text | Print | Product List | Glossary On
Versions: 1 2 3 4 5 6 7 8 9 10 11 12 13 14 15 16 17
000
FTUS43 KLBF 271608 AAC
TAFVTN
TAF AMD
KVTN 271608Z 2716/2812 09010KT P6SM OVC007
      TEMPO 2717/2719 SCT007 BKN070
     FM271900 23012G19KT P6SM SCT100 BKN200
     FM272200 31012G19KT P6SM BKN120
      TEMPO 2723/2803 2SM +TSRA BKN070CB
     FM280300 31014G24KT P6SM SCT070 BKN200=

USA.gov is the U.S. government's official web portal to all federal, state and local government web resources and services.